Weather History for Viroqua, WI

Change the Weather History Date:

Saturday, November 24, 2012

  Actual Average (KLSE) Record (KLSE)
Temperature  
Mean Temperature 22 °F 31 °F  
Max Temperature 30 °F 39 °F 62 °F (1931)
Min Temperature 14 °F 24 °F -6 °F (1898)
Degree Days  
Heating Degree Days 43 34  
Month to date heating degree days 657  
Since 1 July heating degree days 1285  
Cooling Degree Days 0 0  
Month to date cooling degree days 0  
Year to date cooling degree days 782  
Moisture  
Dew Point 17 °F    
Average Humidity 70    
Maximum Humidity 93    
Minimum Humidity 55    
Precipitation  
Precipitation 0.00 in 0.07 in 0.65 in (2001)
Month to date precipitation 1.62  
Year to date precipitation 31.31  
Sea Level Pressure  
Sea Level Pressure 30.08 in    
Wind  
Wind Speed 8 mph (SW)    
Max Wind Speed 15 mph    
Max Gust Speed -    
Visibility 10 miles    
Events      
T = Trace of Precipitation, MM = Missing Value Source: NWS Daily Summary

Daily Weather History Graph

Daily Weather History Graph

Search for Another Location

Airport:

Trip Planner

Search our weather history database for the weather conditions in past years. The results will help you decide how hot, cold, wet, or windy it might be!

Date:

Astronomy

Nov. 24, 2012 Rise Set
Actual Time 7:09 AM CST 4:31 PM CST
Civil Twilight 6:37 AM CST 5:02 PM CST
Nautical Twilight 6:02 AM CST 5:38 PM CST
Astronomical Twilight 5:28 AM CST 6:12 PM CST
Moon 2:20 PM CST (11/24) 3:21 AM CST (11/24)
Length of Visible Light 10h 25m
Length of Day
9h 21m
Waxing Gibbous, 87% of the Moon is Illuminated
Nov 24
Waxing Gibbous
Nov 28
Full
Dec 6
Last Quarter
Dec 13
New
Dec 19
First Quarter

Hourly Weather History & Observations

Time (CST) Temp. Windchill Dew Point Humidity Pressure Visibility Wind Dir Wind Speed Gust Speed Precip Events Conditions
12:15 AM 23.0 °F 10.6 °F 15.8 °F 74% 30.23 in 10.0 mi NNW 13.8 mph - N/A   Overcast
12:35 AM 23.0 °F 10.1 °F 17.6 °F 80% 30.23 in 10.0 mi NW 15.0 mph - N/A   Overcast
12:55 AM 23.0 °F 10.6 °F 15.8 °F 74% 30.23 in 10.0 mi NNW 13.8 mph - N/A   Overcast
1:35 AM 23.0 °F 12.4 °F 15.8 °F 74% 30.23 in 10.0 mi North 10.4 mph - N/A   Overcast
2:15 AM 23.0 °F 12.4 °F 15.8 °F 74% 30.24 in 10.0 mi North 10.4 mph - N/A   Overcast
2:55 AM 23.0 °F 14.7 °F 15.8 °F 74% 30.24 in 10.0 mi NNW 6.9 mph - N/A   Overcast
3:15 AM 23.0 °F 13.1 °F 15.8 °F 74% 30.23 in 10.0 mi NNW 9.2 mph - N/A   Overcast
3:35 AM 21.2 °F 10.1 °F 15.8 °F 80% 30.22 in 10.0 mi NNW 10.4 mph - N/A   Overcast
3:55 AM 21.2 °F 10.9 °F 15.8 °F 80% 30.22 in 10.0 mi NNW 9.2 mph - N/A   Overcast
4:15 AM 21.2 °F 10.9 °F 14.0 °F 74% 30.22 in 10.0 mi North 9.2 mph - N/A   Overcast
4:35 AM 21.2 °F 10.9 °F 14.0 °F 74% 30.22 in 10.0 mi NNW 9.2 mph - N/A   Overcast
4:55 AM 21.2 °F 10.1 °F 14.0 °F 74% 30.22 in 10.0 mi NNW 10.4 mph - N/A   Overcast
5:15 AM 19.4 °F 11.5 °F 14.0 °F 80% 30.22 in 10.0 mi NNW 5.8 mph - N/A   Overcast
5:35 AM 19.4 °F 10.4 °F 14.0 °F 80% 30.22 in 10.0 mi NNW 6.9 mph - N/A   Overcast
5:55 AM 17.6 °F 9.3 °F 12.2 °F 79% 30.22 in 10.0 mi NNW 5.8 mph - N/A   Scattered Clouds
6:15 AM 17.6 °F 10.7 °F 12.2 °F 79% 30.22 in 10.0 mi NW 4.6 mph - N/A   Scattered Clouds
6:35 AM 15.8 °F - 12.2 °F 86% 30.22 in 10.0 mi Calm Calm - N/A   Clear
6:55 AM 14.0 °F 6.5 °F 12.2 °F 93% 30.22 in 10.0 mi North 4.6 mph - N/A   Clear
7:15 AM 15.8 °F 8.6 °F 12.2 °F 86% 30.22 in 10.0 mi NW 4.6 mph - N/A   Clear
7:35 AM 15.8 °F 10.2 °F 12.2 °F 86% 30.23 in 10.0 mi WNW 3.5 mph - N/A   Clear
7:55 AM 17.6 °F - 12.2 °F 79% 30.23 in 10.0 mi Calm Calm - N/A   Clear
8:15 AM 17.6 °F 10.7 °F 14.0 °F 86% 30.23 in 10.0 mi NW 4.6 mph - N/A   Clear
8:35 AM 19.4 °F 12.8 °F 14.0 °F 80% 30.22 in 10.0 mi NNW 4.6 mph - N/A   Clear
8:55 AM 19.4 °F 10.4 °F 14.0 °F 80% 30.22 in 10.0 mi North 6.9 mph - N/A   Clear
9:15 AM 21.2 °F 14.9 °F 14.0 °F 74% 30.21 in 10.0 mi NNW 4.6 mph - N/A   Clear
9:35 AM 21.2 °F 16.4 °F 14.0 °F 74% 30.21 in 10.0 mi WNW 3.5 mph - N/A   Clear
9:55 AM 21.2 °F - 14.0 °F 74% 30.20 in 10.0 mi Calm Calm - N/A   Clear
10:15 AM 21.2 °F - 14.0 °F 74% 30.21 in 10.0 mi Calm Calm - N/A   Clear
10:35 AM 23.0 °F - 14.0 °F 68% 30.20 in 10.0 mi Calm Calm - N/A   Clear
10:55 AM 23.0 °F - 14.0 °F 68% 30.18 in 10.0 mi Calm Calm - N/A   Clear
11:15 AM 24.8 °F - 14.0 °F 64% 30.17 in 10.0 mi Calm Calm - N/A   Clear
11:35 AM 26.6 °F - 14.0 °F 59% 30.15 in 10.0 mi Calm Calm - N/A   Clear
11:55 AM 26.6 °F 21.2 °F 15.8 °F 64% 30.13 in 10.0 mi SSE 4.6 mph - N/A   Clear
12:15 PM 28.4 °F 24.6 °F 15.8 °F 59% 30.13 in 10.0 mi WSW 3.5 mph - N/A   Clear
12:35 PM 28.4 °F 23.3 °F 15.8 °F 59% 30.11 in 10.0 mi South 4.6 mph - N/A   Clear
12:55 PM 30.2 °F 23.4 °F 15.8 °F 55% 30.10 in 10.0 mi SW 6.9 mph - N/A   Clear
1:15 PM 30.2 °F 25.4 °F 15.8 °F 55% 30.09 in 10.0 mi SSW 4.6 mph - N/A   Clear
1:55 PM 30.2 °F 23.4 °F 17.6 °F 60% 30.07 in 10.0 mi South 6.9 mph - N/A   Scattered Clouds
2:15 PM 30.2 °F 23.4 °F 17.6 °F 60% 30.06 in 10.0 mi SW 6.9 mph - N/A   Overcast
2:35 PM 30.2 °F 21.9 °F 17.6 °F 60% 30.05 in 10.0 mi SSW 9.2 mph - N/A   Overcast
2:55 PM 30.2 °F 23.4 °F 17.6 °F 60% 30.04 in 10.0 mi SSW 6.9 mph - N/A   Overcast
3:15 PM 30.2 °F 23.4 °F 17.6 °F 60% 30.05 in 10.0 mi SSW 6.9 mph - N/A   Overcast
3:35 PM 30.2 °F 21.9 °F 17.6 °F 60% 30.03 in 10.0 mi SSW 9.2 mph - N/A   Overcast
3:55 PM 30.2 °F 23.4 °F 19.4 °F 64% 30.00 in 10.0 mi South 6.9 mph - N/A   Overcast
4:15 PM 30.2 °F 25.4 °F 19.4 °F 64% 29.99 in 10.0 mi South 4.6 mph - N/A   Overcast
4:35 PM 30.2 °F 24.3 °F 19.4 °F 64% 29.98 in 10.0 mi South 5.8 mph - N/A   Overcast
4:55 PM 30.2 °F 24.3 °F 19.4 °F 64% 29.97 in 10.0 mi SSE 5.8 mph - N/A   Overcast
5:15 PM 30.2 °F 22.6 °F 19.4 °F 64% 29.95 in 10.0 mi SSE 8.1 mph - N/A   Overcast
5:35 PM 30.2 °F 21.3 °F 19.4 °F 64% 29.95 in 10.0 mi South 10.4 mph - N/A   Overcast
5:55 PM 30.2 °F 20.2 °F 19.4 °F 64% 29.94 in 10.0 mi South 12.7 mph - N/A   Overcast
6:15 PM 30.2 °F 22.6 °F 19.4 °F 64% 29.94 in 10.0 mi South 8.1 mph - N/A   Overcast
6:35 PM 30.2 °F 21.9 °F 19.4 °F 64% 29.93 in 10.0 mi South 9.2 mph - N/A   Overcast
6:55 PM 30.2 °F 22.6 °F 19.4 °F 64% 29.93 in 10.0 mi South 8.1 mph - N/A   Overcast
7:15 PM 30.2 °F 22.6 °F 19.4 °F 64% 29.92 in 10.0 mi South 8.1 mph - N/A   Overcast
7:35 PM 28.4 °F 21.2 °F 19.4 °F 69% 29.92 in 10.0 mi South 6.9 mph - N/A   Mostly Cloudy
7:55 PM 30.2 °F 22.6 °F 19.4 °F 64% 29.90 in 10.0 mi South 8.1 mph - N/A   Mostly Cloudy
8:15 PM 30.2 °F 24.3 °F 19.4 °F 64% 29.90 in 10.0 mi South 5.8 mph - N/A   Overcast
8:35 PM 30.2 °F 22.6 °F 19.4 °F 64% 29.91 in 10.0 mi South 8.1 mph - N/A   Overcast
8:55 PM 30.2 °F 21.9 °F 19.4 °F 64% 29.89 in 10.0 mi South 9.2 mph - N/A   Overcast
9:15 PM 28.4 °F 19.7 °F 19.4 °F 69% 29.90 in 10.0 mi South 9.2 mph - N/A   Overcast
9:35 PM 28.4 °F 17.5 °F 19.4 °F 69% 29.88 in 10.0 mi SSW 13.8 mph - N/A   Overcast
9:55 PM 28.4 °F 17.5 °F 19.4 °F 69% 29.87 in 10.0 mi SSW 13.8 mph - N/A   Overcast
10:15 PM 28.4 °F 19.1 °F 19.4 °F 69% 29.87 in 10.0 mi SSW 10.4 mph - N/A   Mostly Cloudy
10:35 PM 28.4 °F 19.7 °F 19.4 °F 69% 29.87 in 10.0 mi SSW 9.2 mph - N/A   Overcast
10:55 PM 28.4 °F 18.5 °F 21.2 °F 74% 29.86 in 10.0 mi SSW 11.5 mph - N/A   Overcast
11:15 PM 28.4 °F 19.7 °F 21.2 °F 74% 29.84 in 10.0 mi SSW 9.2 mph - N/A   Mostly Cloudy
11:35 PM 28.4 °F 19.7 °F 21.2 °F 74% 29.83 in 10.0 mi SSW 9.2 mph - N/A   Mostly Cloudy
11:55 PM 28.4 °F 19.7 °F 21.2 °F 74% 29.83 in 10.0 mi SSW 9.2 mph - N/A   Mostly Cloudy